Piney Island, NC

6:14 AM EST on November 21, 2017 (GMT -0500)
Piney Island

Weather History for KNBT - December, 2012

Change the Weather History Date:

Friday, December 14, 2012

  Actual Average (KMRH) Record (KMRH)
Temperature  
Mean Temperature 52 °F -  
Max Temperature 57 °F 60 °F 78 °F (1949)
Min Temperature 48 °F 39 °F 18 °F (1960)
Degree Days  
Heating Degree Days 12    
Growing Degree Days 2 (Base 50)    
Moisture  
Dew Point 45 °F    
Average Humidity 80    
Maximum Humidity 89    
Minimum Humidity 62    
Precipitation  
Precipitation 0.00 in - - ()
Sea Level Pressure  
Sea Level Pressure 30.29 in    
Wind  
Wind Speed 11 mph (NNE)    
Max Wind Speed 16 mph    
Max Gust Speed 23 mph    
Visibility 10 miles    
Events      
Averages and records for this station are not official NWS values.
T = Trace of Precipitation, MM = Missing Value Source: NWS Daily Summary

Daily Weather History Graph

Daily Weather History Graph

Search for Another Location

Airport or City:

Trip Planner

Search our weather history database for the weather conditions in past years. The results will help you decide how hot, cold, wet, or windy it might be!

Date:

Astronomy

Dec. 14, 2012 Rise Set
Actual Time 7:06 AM EST 4:55 PM EST
Civil Twilight 6:38 AM EST 5:23 PM EST
Nautical Twilight 6:06 AM EST 5:55 PM EST
Astronomical Twilight 5:35 AM EST 6:26 PM EST
Moon 8:10 AM EST (12/14) 6:43 PM EST (12/14)
Length of Visible Light 10h 45m
Length of Day
9h 49m
Waxing Crescent, 3% of the Moon is Illuminated
Dec 14
Waxing Crescent
Dec 20
First Quarter
Dec 28
Full
Jan 4
Last Quarter
Jan 11
New

Hourly Weather History & Observations

Time (EST) Temp. Dew Point Humidity Pressure Visibility Wind Dir Wind Speed Gust Speed Precip Events Conditions
12:56 AM 48.0 °F 44.1 °F 86% 30.29 in 10.0 mi North 16.1 mph 23.0 mph N/A   Clear
1:56 AM 48.9 °F 44.1 °F 83% 30.28 in 10.0 mi North 12.7 mph - N/A   Clear
2:56 AM 48.0 °F 44.1 °F 86% 30.29 in 10.0 mi North 12.7 mph 20.7 mph N/A   Clear
3:56 AM 48.0 °F 44.1 °F 86% 30.29 in 10.0 mi North 12.7 mph - N/A   Clear
4:56 AM 48.0 °F 44.1 °F 86% 30.29 in 10.0 mi North 9.2 mph - N/A   Clear
5:56 AM 48.0 °F 44.1 °F 86% 30.29 in 10.0 mi North 10.4 mph - N/A   Clear
6:56 AM 48.0 °F 44.1 °F 86% 30.31 in 10.0 mi North 10.4 mph - N/A   Clear
7:56 AM 48.9 °F 44.1 °F 83% 30.33 in 10.0 mi North 12.7 mph 20.7 mph N/A   Clear
8:56 AM 50.0 °F 44.1 °F 80% 30.35 in 10.0 mi North 15.0 mph - N/A   Clear
9:56 AM 51.1 °F 45.0 °F 80% 30.36 in 10.0 mi NNE 11.5 mph - N/A   Clear
10:56 AM 52.0 °F 46.0 °F 80% 30.33 in 10.0 mi NNE 11.5 mph - N/A   Clear
11:56 AM 54.0 °F 46.0 °F 75% 30.32 in 10.0 mi North 9.2 mph - N/A   Clear
12:56 PM 55.0 °F 46.9 °F 74% 30.30 in 10.0 mi North 8.1 mph - N/A   Clear
1:56 PM 55.9 °F 46.0 °F 69% 30.29 in 10.0 mi NNE 9.2 mph - N/A   Clear
2:56 PM 55.9 °F 43.0 °F 62% 30.27 in 10.0 mi NNE 8.1 mph - N/A   Clear
3:56 PM 57.0 °F 44.1 °F 62% 30.27 in 10.0 mi North 6.9 mph - N/A   Clear
4:56 PM 53.1 °F 46.0 °F 77% 30.25 in 10.0 mi NNE 4.6 mph - N/A   Clear
5:56 PM 53.1 °F 46.0 °F 77% 30.26 in 10.0 mi NE 4.6 mph - N/A   Clear
6:56 PM 53.1 °F 46.9 °F 80% 30.27 in 10.0 mi ENE 4.6 mph - N/A   Clear
7:56 PM 52.0 °F 46.0 °F 80% 30.27 in 10.0 mi ENE 4.6 mph - N/A   Clear
8:56 PM 51.1 °F 46.9 °F 86% 30.27 in 10.0 mi ENE 5.8 mph - N/A   Clear
9:56 PM 50.0 °F 46.0 °F 86% 30.29 in 10.0 mi East 3.5 mph - N/A   Clear
10:56 PM 48.0 °F 45.0 °F 89% 30.29 in 10.0 mi Calm Calm - N/A   Clear
11:56 PM 50.0 °F 46.0 °F 86% 30.28 in 10.0 mi East 3.5 mph - N/A   Clear